Regional Weather Roundup
Issued by NWS Charleston, SC

Current Version | Previous Version | Graphics & Text | Print | Product List | Glossary On
Versions: 1 2 3 4 5 6 7 8 9 10 11 12 13 14 15 16 17 18 19 20 21 22 23 24 25 26 27 28 29 30 31 32 33 34 35 36 37 38 39 40 41 42 43 44 45 46 47 48 49 50
000 ASUS42 KCHS 311526 RWRCHS REGIONAL WEATHER ROUNDUP NATIONAL WEATHER SERVICE CHARLESTON SC 1000 AM EST SAT JAN 31 2015 NOTE: "FAIR" INDICATES FEW OR NO CLOUDS BELOW 12,000 FEET WITH NO SIGNIFICANT WEATHER AND/OR OBSTRUCTIONS TO VISIBILITY. NOT ALL STATIONS ARE QUALITY CONTROLLED BY THE NATIONAL WEATHER SERVICE. USE DATA WITH CAUTION...ESPECIALLY DEWPOINT OBSERVATIONS. SCZ027-030-031-034>040-042>050-311600- ...SOUTHEAST SOUTH CAROLINA... CITY SKY/WX TMP DP RH WIND PRES REMARKS N CHARLESTON MOSUNNY 43 11 27 NE7 30.39R WATERFRONT PRK N/A 43 N/A N/A N12 N/A MOUNT PLEASANT FAIR 43 12 28 NE5 30.39R PINOPOLIS N/A 37 18 44 NE8 30.29F WCI 31 MONCKS CORNER FAIR 41 14 33 NE5 30.39S SUMMERVILLE FAIR 43 18 36 NE5 30.42R BEAUFORT MCAS SUNNY 41 19 41 VRB7 30.40R BEAUFORT ARPT FAIR 43 23 45 N9 30.40R HILTON HEAD IS MOSUNNY N/A N/A N/A NE8 30.40R WALTERBORO SUNNY 41 12 30 E7 30.41R ALLENDALE FAIR 41 16 36 CALM 30.41R ...SOUTHERN MIDLANDS AND PEE DEE... CITY SKY/WX TMP DP RH WIND PRES REMARKS GEORGETOWN NOT AVBL KINGSTREE NOT AVBL ORANGEBURG SUNNY 39 13 34 NE5 30.40R WCI 36 BARNWELL FAIR 43 18 36 E5 30.42R AIKEN FAIR 41 16 36 NE6 30.42R MANNING FAIR 41 12 30 N7 30.40R COLUMBIA MOSUNNY 39 19 44 CALM 30.41R SUMTER SUNNY 39 11 32 NE6 30.38R WCI 35 FLORENCE SUNNY 38 12 34 NE3 30.39R MYRTLE BEACH NOT AVBL N MYRTLE BEACH SUNNY 38 11 32 N8 30.38R WCI 32 $$ GAZ063-065-086>088-099>101-113>116-118-119-134>141-150-311600- ...SOUTHEAST GEORGIA... CITY SKY/WX TMP DP RH WIND PRES REMARKS SAVANNAH ARPT MOSUNNY 43 20 39 NE8 30.41R HUNTER AAF SUNNY 44 24 45 NE7 30.38R FORT STEWART MOSUNNY 43 24 47 NE7 30.38R STATESBORO SUNNY 43 21 42 E6 30.41R SYLVANIA SUNNY 43 21 42 E7 30.42R CLAXTON FAIR 43 23 45 CALM 30.42R ...CSRA...CENTRAL AND FAR SOUTHEAST GEORGIA... CITY SKY/WX TMP DP RH WIND PRES REMARKS THOMSON MOSUNNY 42 27 55 CALM 30.44R AUGUSTA-BUSH SUNNY 39 19 44 CALM 30.43R AUGUSTA-DANIEL SUNNY 42 12 29 E3 30.41R SWAINSBORO FAIR 45 3 18 E6 30.41S VIDALIA MOSUNNY 45 27 49 E8 30.39S EASTMAN FAIR 45 22 40 E8 30.43S HAZLEHURST FAIR 45 25 45 E6 30.39S ALMA SUNNY 45 22 40 NE7 30.40R WAYCROSS SUNNY 51 31 46 E6 30.40R JESUP FAIR 50 30 46 CALM 30.41R BAXLEY FAIR 46 25 42 NE7 30.40R BRUNSWICK SUNNY 52 32 46 E14 30.40R SAINT SIMONS SUNNY 50 34 54 NE14 30.37R $$ SCZ027-028-034-036>038-045-046-048>050-GAZ119-141-311600- ...LAKE AND SUPPLEMENTAL COASTAL OBSERVATIONS... STATION/POSITION TIME TEMP WIND PRES WAVE SWELL AIR SEA DIR/SP/G HT/PER HT/PER/DIR (UTC) (F) (DEG/KT/KT) (MB) (FT/S) (FT/S/D) UPR LAKE MARION NOT AVBL WINYAH BAY 1400 35 50/ 6 1028.0 LAKE MURRAY 1500 39 80/ 1/ 2 1029.1R ACE BASIN NERRS 1445 41 N/A FORT PULASKI 1500 43 52 50/ 10/ 14 1029.8R SAPELO ISLAND 1500 50 60/ 12 1028.0S $$ ANZ835-935-AMZ111-154-330-350-352-354-370-450-454-472-311600- ...C-MAN AND BUOY OBSERVATIONS... STATION/POSITION TIME TEMP WIND PRES WAVE SWELL AIR SEA DIR/SP/G HT/PER HT/PER/DIR (UTC) (F) (DEG/KT/KT) (MB) (FT/S) (FT/S/D) BUOY 41004 1450 45 67 20/ 17/ 23 1027.9R 6/ 7 2/ 8 BUOY 41008 1450 49 54 50/ 16/ 19 1028.0R 5/ 7 FOLLY BEACH CMAN 1500 41 40/ 15/ 18 1029.5R CAPERS NEARSHORE 1400 41 50/ 19/ 21 N/A FRIPP NEARSHORE 1400 44 80/ 16/ 17 1027.3R STATION/POSITION TIME TEMP WIND PRES WAVE SWELL AIR SEA DIR/SP/G HT/PER HT/PER/DIR (UTC) (F) (DEG/KT/KT) (MB) (FT/S) (FT/S/D) 5E ST. MARYS GA 1421 56 N/A 4/ 6 FRYING PAN BUOY 1450 39 61 10/ 17/ 21 1028.9R 5/ 6 2/ 70/ 8 BUOY 41025 1450 34 61 340/ 27/ 33 1025.5R 7/ 6 2/ 30/10 CAPE LOOKOUT NC 1500 33 340/ 16/ 18 1027.8R BUOY 41002 1450 53 69 330/ 21/ 27 1024.4R 11/ 9 8/340/ 9 BUOY 41010 1420 62 73 10/ 16/ 21 1025.0R ST AUGUSTINE FL 1500 56 30/ 16/ 17 1027.4R $$

USA.gov is the U.S. government's official web portal to all federal, state and local government web resources and services.